Home   Weather   Nikaia   Past weeks

Flag for Greece Past Weather in Nikaia, Greece — Yesterday and Last 2 Weeks

Now
61 °F

Clear.


Feels Like: 61 °F
Forecast: 57 / 82 °F
Wind: 3 mph from North

Location: Elefsis Airport

Current Time: Oct 1, 2016 at 4:31:55 AM

Latest Report: Oct 1, 2016 at 3:50 AM


Visibility: 10 mi

Pressure: 30.04 "Hg

Humidity: 59%

Dew Point: 46 °F

Location of NikaiaLocation

Past Weather in Nikaia — Graph

°F

Nikaia Temperature Yesterday

Maximum temperature yesterday: 82 °F (at 2:50 PM)
Minimum temperature yesterday: 57 °F (at 5:50 AM)
Average temperature yesterday: 70 °F

High & Low Weather Summary for the Past Weeks

 TemperatureHumidityPressure
High95 °F (Sep 18, 1:50 PM)88% (Sep 22, 1:20 AM)30.33 "Hg (Sep 22, 1:20 AM)
Low57 °F (Sep 30, 5:50 AM)23% (Sep 18, 4:50 PM)29.71 "Hg (Sep 20, 4:20 AM)
Average72 °F48%30.04 "Hg
* Reported Sep 16 3:20 AM — Oct 1 3:20 AM, Nikaia, Weather by CustomWeather, © 2016

Note: Actual official high and low records may vary slightly from our data, if they occured in-between our weather recording intervals... More about our weather records

Advertising

Nikaia Weather History for the Previous 24 Hours

Scroll right to see more
 ConditionsComfort  
Time TempWeatherWind HumidityBarometerVisibility
3:20 AM
Sat, Oct 1
63 °FClear.3 mph56%30.07 "Hg10 mi
2:50 AM63 °FClear.3 mph59%30.07 "Hg10 mi
2:20 AM63 °FClear.3 mph59%30.07 "Hg10 mi
1:50 AM63 °FClear.3 mph56%30.07 "Hg10 mi
1:20 AM63 °FClear.No wind52%30.07 "Hg10 mi
12:50 AM64 °FClear.3 mph49%30.09 "Hg10 mi
12:20 AM64 °FClear.3 mph46%30.09 "Hg10 mi
11:50 PM
Fri, Sep 30
64 °FClear.3 mph49%30.09 "Hg10 mi
11:20 PM66 °FClear.No wind46%30.09 "Hg10 mi
10:50 PM64 °FClear.3 mph49%30.09 "Hg10 mi
10:20 PM66 °FClear.3 mph49%30.09 "Hg10 mi
9:50 PM66 °FClear.No wind49%30.09 "Hg10 mi
9:20 PM68 °FClear.3 mph49%30.09 "Hg10 mi
8:50 PM72 °FClear.No wind50%30.07 "Hg10 mi
8:20 PM73 °FClear.No wind47%30.07 "Hg10 mi
7:50 PM73 °FClear.3 mph44%30.07 "Hg10 mi
7:20 PM75 °FClear.5 mph47%30.07 "Hg10 mi
6:50 PM77 °FSunny.6 mph42%30.07 "Hg10 mi
6:20 PM81 °FSunny.7 mph30%30.07 "Hg10 mi
5:50 PM81 °FSunny.7 mph30%30.07 "Hg10 mi
5:20 PM82 °FSunny.7 mph25%30.07 "Hg10 mi
4:50 PM82 °FSunny.8 mph23%30.07 "Hg10 mi
4:20 PM82 °FSunny.7 mph25%30.07 "Hg10 mi
3:50 PM82 °FSunny.7 mph25%30.07 "Hg10 mi
3:20 PM82 °FSunny.6 mph25%30.09 "Hg10 mi
2:50 PM82 °FSunny.7 mph25%30.09 "Hg10 mi
2:20 PM81 °FSunny.7 mph28%30.09 "Hg10 mi
1:50 PM81 °FSunny.7 mph30%30.12 "Hg10 mi
1:20 PM81 °FSunny.8 mph30%30.12 "Hg10 mi
12:50 PM79 °FSunny.8 mph32%30.15 "Hg10 mi
12:20 PM79 °FSunny.7 mph24%30.15 "Hg10 mi
11:50 AM61 °FSunny.6 mph59%30.15 "Hg10 mi
11:20 AM79 °FSunny.5 mph32%30.15 "Hg10 mi
10:50 AM77 °FSunny.5 mph30%30.15 "Hg10 mi
10:20 AM77 °FSunny.5 mph30%30.15 "Hg10 mi
9:50 AM72 °FSunny.No wind41%30.15 "Hg10 mi
9:20 AM70 °FSunny.No wind40%30.15 "Hg10 mi
8:50 AM68 °FSunny.No wind46%30.15 "Hg10 mi
8:20 AM61 °FSunny.No wind59%30.15 "Hg10 mi
7:50 AM57 °FSunny.No wind63%30.12 "Hg10 mi
7:20 AM57 °FSunny.No wind63%30.12 "Hg10 mi
6:50 AM57 °FClear.No wind63%30.12 "Hg10 mi
6:20 AM57 °FClear.No wind63%30.12 "Hg10 mi
5:50 AM57 °FClear.3 mph63%30.15 "Hg10 mi
5:20 AM59 °FClear.No wind59%30.15 "Hg10 mi
4:50 AM59 °FClear.3 mph59%30.12 "Hg10 mi
4:20 AM59 °FClear.3 mph59%30.15 "Hg10 mi
Weather by CustomWeather, © 2016

See weather overviewHow to use our weather pages